Flag for Norway Weather past 2 weeks in Sarpsborg, Norway

Now
66 °F

Partly sunny.


Feels Like: 66 °F
Forecast: 56 / 78 °F
Wind: 3 mph from Southeast

Location: Rygge

Current Time: Jul 4, 2015 at 2:25:12 PM

Latest Report: Jul 4, 2015 at 1:50 PM


Visibility: N/A

Pressure: 30.15 "Hg

Humidity: 83%

Dew point: 61 °F

Location of SarpsborgLocation

Historic Weather in Sarpsborg — Graph

°F

Sarpsborg temperature yesterday

Maximum temperature yesterday: 72 °F (at 4:50 PM)
Minimum temperature yesterday: 59 °F (at 2:50 AM)
Average temperature yesterday: 65 °F

Past Weeks' High & Low Weather Summary

 TemperatureHumidityPressure
High73 °F (Jun 30, 3:50 PM)100% (Jun 24, 2:50 AM)30.36 "Hg (Jun 24, 2:50 AM)
Low46 °F (Jun 27, 4:20 AM)33% (Jun 20, 1:50 PM)29.65 "Hg (Jun 22, 7:20 PM)
Average61 °F73%29.96 "Hg
* Reported Jun 19 1:20 PM — Jul 4 1:20 PM, Sarpsborg, Weather by CustomWeather, © 2015

Note: Actual official high and low records may vary slightly from our data, if they occured in-between our weather recording intervals... More about our weather records

Advertising

Sarpsborg weather history for previous 24 hours

 ConditionsComfort  
Time TempWeatherWind HumidityBarometerVisibility
1:20 PM
Sat, Jul 4
64 °FPartly sunny.3 mph83%30.18 "HgN/A
12:50 PM63 °FPartly sunny.6 mph88%30.18 "HgN/A
12:20 PM63 °FPartly sunny.7 mph88%30.18 "HgN/A
11:50 AM61 °FPartly sunny.6 mph94%30.21 "Hg5 mi
11:20 AM61 °FPartly sunny.7 mph94%30.21 "Hg4 mi
10:50 AM61 °FPartly sunny.3 mph94%30.21 "Hg6 mi
10:20 AM61 °FPartly sunny.3 mph94%30.18 "Hg6 mi
9:50 AM61 °FPartly sunny.3 mph94%30.18 "HgN/A
9:20 AM61 °FPartly sunny.No wind94%30.18 "Hg6 mi
8:50 AM61 °FPartly sunny.2 mph94%30.18 "Hg4 mi
8:20 AM61 °FFog.3 mph94%30.18 "Hg1 mi
7:50 AM59 °FFog.6 mph100%30.18 "Hg2 mi
7:20 AM59 °FFog.2 mph100%30.18 "Hg1 mi
6:50 AM59 °FFog.No wind100%30.18 "Hg1 mi
6:20 AM59 °FFog.3 mph100%30.18 "Hg0 mi
5:52 AM59 °FFog.2 mph100%30.18 "Hg0 mi
5:20 AM59 °FFog.2 mph100%30.18 "Hg0 mi
4:50 AM59 °FFog.3 mph100%30.18 "Hg0 mi
4:20 AM59 °FFog.5 mph100%30.18 "Hg0 mi
3:50 AM61 °FFog.7 mph94%30.18 "Hg0 mi
3:20 AM61 °FFog.5 mph94%30.18 "Hg0 mi
2:50 AM61 °FCool.5 mph94%30.21 "Hg0 mi
2:20 AM61 °FCool.5 mph94%30.21 "Hg0 mi
1:50 AM61 °FCool.6 mph94%30.18 "Hg1 mi
1:20 AM61 °FFog.7 mph94%30.18 "Hg1 mi
12:50 AM61 °FFog.7 mph94%30.18 "Hg1 mi
12:20 AM61 °FFog.8 mph94%30.21 "Hg2 mi
11:50 PM
Fri, Jul 3
61 °FFog.9 mph94%30.21 "Hg1 mi
11:20 PM61 °FLow clouds.12 mph100%30.21 "Hg4 mi
10:50 PM63 °FPartly sunny.12 mph94%30.21 "Hg5 mi
10:20 PM63 °FPartly sunny.15 mph94%30.21 "HgN/A
9:50 PM64 °FPartly sunny.10 mph88%30.21 "HgN/A
9:20 PM64 °FScattered clouds.14 mph88%30.21 "HgN/A
8:50 PM66 °FSunny.15 mph83%30.21 "Hg10 mi
8:20 PM68 °FPassing clouds.15 mph78%30.21 "HgN/A
7:50 PM70 °FSunny.13 mph73%30.21 "Hg10 mi
7:20 PM70 °FSunny.12 mph73%30.21 "Hg10 mi
6:50 PM70 °FSunny.12 mph69%30.21 "Hg10 mi
6:20 PM68 °FSunny.10 mph73%30.21 "Hg10 mi
5:50 PM70 °FSunny.13 mph69%30.21 "Hg10 mi
5:20 PM72 °FSunny.13 mph65%30.24 "Hg10 mi
4:50 PM72 °FSunny.13 mph61%30.24 "Hg10 mi
4:20 PM68 °FSunny.13 mph73%30.24 "Hg10 mi
3:50 PM70 °FSunny.13 mph69%30.24 "Hg10 mi
3:20 PM70 °FSunny.13 mph69%30.24 "Hg10 mi
2:50 PM70 °FPassing clouds.12 mph69%30.24 "HgN/A
2:20 PM70 °FPassing clouds.10 mph69%30.24 "HgN/A
Weather by CustomWeather, © 2015

See weather overviewHow to use our weather pages